Overview Statistics Trail Chart Weather Telemetry Raw packets
 

This is the latest recevied weather packets stored in our database for station/object KD4EG. If no packets are shown the sender has not sent any weather packets the latest 10 day(s).

<< 14 15 16 17 18 19 20 >>
Time Temp. Humidity Pressure Rain* Wind** Luminosity Snow
1788548214 36.11° C 47% 1017.1 hPa 0 mm - 105 W/m² -
1788547908 36.11° C 46% 1017.1 hPa 0 mm - 247 W/m² -
1788547606 36.11° C 45% 1017.2 hPa 0 mm - 678 W/m² -
1788547302 35.56° C 47% 1017.3 hPa 0 mm - 670 W/m² -
1788546998 35.56° C 47% 1017.4 hPa 0 mm - 649 W/m² -
1788546697 35.56° C 49% 1017.5 hPa 0 mm - 666 W/m² -
1788546393 35° C 50% 1017.6 hPa 0 mm - 216 W/m² -
1788546088 35° C 49% 1017.7 hPa 0 mm - 274 W/m² -
1788545784 35° C 50% 1017.7 hPa 0 mm - 159 W/m² -
1788545478 35° C 50% 1017.8 hPa 0 mm - 225 W/m² -
1788545173 35° C 49% 1017.8 hPa 0 mm - 629 W/m² -
1788544869 34.44° C 50% 1018 hPa 0 mm - 175 W/m² -
1788544568 35° C 49% 1017.9 hPa 0 mm - 144 W/m² -
1788544266 35° C 49% 1018 hPa 0 mm - 591 W/m² -
1788543961 35.56° C 49% 1018 hPa 0 mm - 216 W/m² -
1788543658 35.56° C 47% 1018 hPa 0 mm - 253 W/m² -
1788543357 35° C 48% 1018.4 hPa 0 mm - 641 W/m² -
1788543053 35° C 49% 1018 hPa 0 mm - 374 W/m² -
1788542749 35.56° C 48% 1018.2 hPa 0 mm - 159 W/m² -
1788542448 35° C 48% 1018.3 hPa 0 mm - 666 W/m² -
1788542143 35.56° C 48% 1018.1 hPa 0 mm - 603 W/m² -
1788541839 35.56° C 47% 1018.3 hPa 0 mm - 550 W/m² -
1788541534 35.56° C 48% 1018.3 hPa 0 mm - 607 W/m² -
1788541231 35.56° C 49% 1018.4 hPa 0 mm - 666 W/m² -
1788540929 35° C 49% 1018.6 hPa 0 mm - 660 W/m² -

* Rain latest hour (hover to see other rain measurements)
** Current wind speed in m/s (hover to see current wind gust speed)